PDT,Max TemperatureF,Mean TemperatureF,Min TemperatureF,Max Dew PointF,MeanDew PointF,Min DewpointF,Max Humidity, Mean Humidity, Min Humidity, Max Sea Level PressureIn, Mean Sea Level PressureIn, Min Sea Level PressureIn, Max VisibilityMiles, Mean VisibilityMiles, Min VisibilityMiles, Max Wind SpeedMPH, Mean Wind SpeedMPH, Max Gust SpeedMPH,PrecipitationIn, CloudCover, Events, WindDirDegrees
2013-6-1,98,76,53,53,43,31,72,41,10,29.81,29.75,29.71,,,,23,10,33,0.00,,,63
2013-6-2,87,69,50,52,41,32,59,38,17,29.74,29.71,29.69,,,,18,9,22,0.00,,,210
2013-6-3,83,62,40,52,43,32,73,48,22,29.82,29.76,29.71,,,,20,8,25,0.00,,,188
2013-6-4,81,59,37,51,42,33,92,57,21,29.89,29.84,29.80,,,,18,6,24,0.00,,,221
2013-6-5,85,63,40,52,44,37,86,55,24,29.90,29.87,29.83,,,,21,10,25,0.00,,,199
2013-6-6,86,65,44,52,48,42,86,59,31,29.85,29.83,29.80,,,,22,10,25,0.00,,,135
2013-6-7,85,65,45,54,49,42,92,60,28,29.81,29.76,29.73,,,,21,9,25,0.00,,,178
2013-6-8,87,68,48,52,46,36,83,52,20,29.82,29.76,29.72,,,,21,9,25,0.00,,,186
2013-6-9,87,67,46,48,35,15,61,35,8,29.83,29.81,29.79,,,,17,7,22,0.00,,,256
2013-6-10,84,63,41,50,36,21,49,30,11,29.86,29.84,29.80,,,,18,7,23,0.00,,,221
2013-6-11,92,70,47,54,39,23,59,34,8,29.86,29.84,29.82,,,,21,9,25,0.00,,,167
2013-6-12,83,67,51,53,47,37,72,47,21,29.91,29.88,29.84,,,,20,9,23,0.00,,,190
2013-6-13,91,68,45,51,44,33,80,50,19,29.92,29.88,29.84,,,,21,9,25,0.00,,,167
2013-6-14,86,65,44,48,39,21,86,48,10,29.85,29.81,29.78,,,,21,10,24,0.00,,,162
2013-6-15,84,62,39,48,32,8,71,39,7,29.90,29.85,29.81,,,,20,9,24,0.00,,,139
2013-6-16,86,61,36,48,33,8,76,42,7,29.94,29.91,29.88,,,,21,9,25,0.00,,,158
2013-6-17,90,67,44,45,38,31,76,45,13,29.91,29.87,29.84,,,,22,10,23,0.00,,,225
2013-6-18,86,65,43,49,39,29,66,41,15,29.85,29.82,29.78,,,,22,11,28,0.00,,,206
2013-6-19,86,64,42,46,38,21,83,47,11,29.78,29.76,29.74,,,,22,10,26,0.00,,,218
2013-6-20,86,64,41,41,37,24,82,47,12,29.82,29.78,29.75,,,,23,9,26,0.00,,,217
2013-6-21,85,63,40,44,34,15,70,39,8,29.83,29.81,29.78,,,,20,9,24,0.00,,,190
2013-6-22,87,65,42,48,39,30,70,43,15,29.83,29.80,29.76,,,,22,9,25,0.00,,,181
2013-6-23,81,61,41,49,42,34,71,47,23,29.80,29.77,29.73,,,,20,10,25,0.00,,,194
2013-6-24,78,61,43,53,45,30,92,56,19,29.86,29.83,29.78,,,,22,9,25,0.00,,,209
2013-6-25,87,68,48,56,51,45,93,61,29,29.91,29.88,29.84,,,,20,8,29,0.00,,,224
2013-6-26,95,74,53,55,52,49,86,55,24,29.95,29.90,29.86,,,,20,8,29,0.00,,,203
2013-6-27,97,77,56,52,49,43,69,43,17,29.97,29.95,29.93,,,,21,8,28,0.00,,,213
2013-6-28,102,79,56,53,47,42,67,41,15,29.96,29.89,29.83,,,,20,9,25,0.00,,,259
2013-6-29,106,82,58,54,45,40,60,36,11,29.84,29.78,29.71,,,,20,8,26,0.00,,,340
2013-6-30,105,84,63,55,46,38,45,28,10,29.76,29.73,29.70,,,,21,8,25,0.00,,,12